Weather History for K9V9 - August, 2014

Change the Weather History Date:

Thursday, August 14, 2014

  Actual Average Record
Temperature  
Mean Temperature 73 °F -  
Max Temperature 82 °F 83 °F 93 °F (2002)
Min Temperature 64 °F 56 °F 46 °F (2004)
Cooling Degree Days 8    
Growing Degree Days 23 (Base 50)    
Moisture  
Dew Point 65 °F    
Average Humidity 77    
Maximum Humidity 94    
Minimum Humidity 59    
Precipitation  
Precipitation 0.00 in - - ()
Sea Level Pressure  
Sea Level Pressure 29.94 in    
Wind  
Wind Speed 12 mph (SE)    
Max Wind Speed 22 mph    
Max Gust Speed 31 mph    
Visibility 10 miles    
Events Rain    
Averages and records for this station are not official NWS values.
T = Trace of Precipitation, MM = Missing Value Source: NWS Daily Summary

Daily Weather History Graph

Daily Weather History Graph

Search for Another Location

Airport or City:

Trip Planner

Search our weather history database for the weather conditions in past years. The results will help you decide how hot, cold, wet, or windy it might be!

Date:

Astronomy

Aug. 14, 2014 Rise Set
Actual Time 6:40 AM CDT 8:42 PM CDT
Civil Twilight 6:09 AM CDT 9:13 PM CDT
Nautical Twilight 5:30 AM CDT 9:51 PM CDT
Astronomical Twilight 4:48 AM CDT 10:33 PM CDT
Moon 10:55 PM CDT (8/14) 11:29 AM CDT (8/14)
Length of Visible Light 15h 04m
Length of Day
14h 01m
Waning Gibbous, 79% of the Moon is Illuminated
Aug 14
Waning Gibbous
Aug 17
Last Quarter
Aug 25
New
Sep 2
First Quarter
Sep 8
Full

Hourly Weather History & Observations

Time (CDT) Temp. Heat Index Dew Point Humidity Pressure Visibility Wind Dir Wind Speed Gust Speed Precip Events Conditions
12:15 AM 68.4 °F - 64.6 °F 88% 30.02 in 10.0 mi SE 10.4 mph - N/A   Clear
12:35 AM 68.4 °F - 64.4 °F 87% 30.02 in 10.0 mi SE 10.4 mph - N/A   Clear
12:55 AM 68.4 °F - 64.4 °F 87% 30.02 in 10.0 mi SE 11.5 mph - N/A   Clear
1:15 AM 68.0 °F - 64.4 °F 88% 30.02 in 10.0 mi SE 10.4 mph - N/A   Clear
1:35 AM 67.3 °F - 64.4 °F 90% 30.02 in 10.0 mi SE 6.9 mph - N/A   Scattered Clouds
1:55 AM 67.5 °F - 64.0 °F 89% 30.00 in 10.0 mi SE 12.7 mph - N/A   Scattered Clouds
2:15 AM 67.3 °F - 64.0 °F 89% 30.00 in 10.0 mi SE 9.2 mph - N/A   Mostly Cloudy
2:35 AM 67.3 °F - 64.4 °F 90% 30.00 in 10.0 mi SE 6.9 mph - N/A   Mostly Cloudy
2:55 AM 67.1 °F - 64.4 °F 91% 30.00 in 10.0 mi SSE 8.1 mph - N/A   Scattered Clouds
3:15 AM 66.6 °F - 64.4 °F 93% 29.99 in 10.0 mi SE 9.2 mph - N/A Rain Light Rain
3:35 AM 66.2 °F - 64.4 °F 94% 29.98 in 10.0 mi SE 12.7 mph 16.1 mph N/A Rain Light Rain
3:55 AM 66.7 °F - 63.9 °F 90% 29.98 in 10.0 mi SE 13.8 mph 18.4 mph N/A   Drizzle
4:15 AM 66.9 °F - 63.7 °F 89% 29.97 in 10.0 mi ESE 12.7 mph 18.4 mph N/A   Mostly Cloudy
4:35 AM 67.1 °F - 63.5 °F 88% 29.97 in 10.0 mi SE 12.7 mph - N/A   Overcast
4:55 AM 67.1 °F - 63.3 °F 88% 29.97 in 10.0 mi SE 11.5 mph - N/A   Overcast
5:15 AM 67.1 °F - 62.8 °F 86% 29.97 in 10.0 mi SE 9.2 mph - N/A   Scattered Clouds
5:35 AM 67.3 °F - 63.0 °F 86% 29.97 in 10.0 mi ESE 10.4 mph 16.1 mph N/A   Clear
5:55 AM 67.6 °F - 62.1 °F 82% 29.98 in 10.0 mi SE 13.8 mph - N/A   Clear
6:15 AM 66.7 °F - 62.6 °F 86% 29.99 in 10.0 mi ESE 6.9 mph - N/A   Clear
6:35 AM 66.2 °F - 62.4 °F 88% 30.00 in 10.0 mi ESE 3.5 mph - N/A   Light Drizzle
6:55 AM 65.8 °F - 62.2 °F 88% 30.00 in 10.0 mi SE 4.6 mph - N/A   Scattered Clouds
7:15 AM 64.9 °F - 62.1 °F 90% 29.98 in 10.0 mi SE 6.9 mph - N/A   Clear
7:35 AM 64.9 °F - 62.1 °F 90% 29.99 in 10.0 mi SE 6.9 mph - N/A   Clear
7:55 AM 65.3 °F - 61.9 °F 89% 29.98 in 10.0 mi SE 9.2 mph - N/A   Clear
8:15 AM 66.0 °F - 61.7 °F 86% 30.00 in 10.0 mi ESE 11.5 mph 16.1 mph N/A   Clear
8:35 AM 65.7 °F - 61.7 °F 87% 29.99 in 10.0 mi ESE 12.7 mph - N/A   Clear
8:55 AM 66.4 °F - 61.7 °F 85% 29.99 in 10.0 mi ESE 15.0 mph 18.4 mph N/A   Clear
9:15 AM 66.2 °F - 61.2 °F 84% 29.98 in 10.0 mi SE 16.1 mph 20.7 mph N/A   Clear
9:35 AM 67.5 °F - 61.7 °F 82% 29.98 in 10.0 mi SSE 16.1 mph 20.7 mph N/A   Clear
9:55 AM 68.9 °F - 62.4 °F 80% 29.98 in 10.0 mi SE 10.4 mph 18.4 mph N/A   Clear
10:15 AM 72.0 °F - 63.0 °F 73% 29.97 in 10.0 mi SE 15.0 mph - N/A   Clear
10:35 AM 72.5 °F - 63.5 °F 73% 29.96 in 10.0 mi SE 13.8 mph 18.4 mph N/A   Clear
10:55 AM 74.1 °F - 64.4 °F 72% 29.96 in 10.0 mi SE 13.8 mph - N/A   Clear
11:15 AM 74.3 °F - 64.4 °F 71% 29.96 in 10.0 mi ESE 15.0 mph - N/A   Clear
11:35 AM 76.3 °F - 64.6 °F 67% 29.96 in 10.0 mi SE 15.0 mph 19.6 mph N/A   Clear
11:55 AM 77.2 °F - 64.8 °F 65% 29.96 in 10.0 mi SE 16.1 mph - N/A   Clear
12:15 PM 78.4 °F - 65.1 °F 63% 29.96 in 10.0 mi SE 17.3 mph 20.7 mph N/A   Clear
12:35 PM 78.4 °F - 65.1 °F 63% 29.96 in 10.0 mi SE 15.0 mph - N/A   Clear
12:55 PM 80.8 °F 82.6 °F 65.3 °F 59% 29.96 in 10.0 mi ESE 18.4 mph 23.0 mph N/A   Clear
1:15 PM 78.1 °F - 64.8 °F 63% 29.95 in 10.0 mi SE 15.0 mph 23.0 mph N/A   Clear
1:35 PM 77.0 °F - 63.7 °F 63% 29.95 in 10.0 mi SE 17.3 mph 25.3 mph N/A   Clear
1:55 PM 77.0 °F - 64.9 °F 66% 29.93 in 10.0 mi SE 19.6 mph 25.3 mph N/A   Clear
2:15 PM 76.6 °F - 64.6 °F 66% 29.93 in 10.0 mi SE 21.9 mph 26.5 mph N/A   Clear
2:35 PM 77.4 °F - 65.5 °F 67% 29.92 in 10.0 mi SE 17.3 mph 26.5 mph N/A   Clear
2:55 PM 78.1 °F - 65.5 °F 65% 29.91 in 10.0 mi SE 20.7 mph 31.1 mph N/A   Clear
3:15 PM 80.6 °F 82.7 °F 66.0 °F 61% 29.91 in 10.0 mi SE 18.4 mph 28.8 mph N/A   Clear
3:35 PM 80.1 °F 82.1 °F 66.2 °F 62% 29.90 in 10.0 mi SE 20.7 mph 31.1 mph N/A   Clear
3:55 PM 81.0 °F 83.2 °F 66.6 °F 61% 29.90 in 10.0 mi SE 20.7 mph 28.8 mph N/A   Clear
4:15 PM 81.3 °F 83.8 °F 67.3 °F 62% 29.90 in 10.0 mi SE 20.7 mph 27.6 mph N/A   Clear
4:35 PM 82.0 °F 84.9 °F 67.6 °F 62% 29.89 in 10.0 mi SE 21.9 mph 27.6 mph N/A   Clear
4:55 PM 82.0 °F 84.7 °F 67.3 °F 61% 29.89 in 10.0 mi SE 21.9 mph 27.6 mph N/A   Clear
5:15 PM 81.5 °F 84.1 °F 67.5 °F 62% 29.88 in 10.0 mi SE 17.3 mph 24.2 mph N/A   Clear
5:35 PM 82.0 °F 84.9 °F 67.6 °F 62% 29.88 in 10.0 mi SE 17.3 mph 23.0 mph N/A   Clear
5:55 PM 81.5 °F 83.9 °F 67.1 °F 61% 29.88 in 10.0 mi SE 19.6 mph 26.5 mph N/A   Clear
6:15 PM 80.6 °F 82.9 °F 67.1 °F 63% 29.87 in 10.0 mi SE 19.6 mph 26.5 mph N/A   Clear
6:35 PM 79.7 °F - 66.9 °F 65% 29.87 in 10.0 mi SE 15.0 mph 25.3 mph N/A   Clear
6:55 PM 78.1 °F - 66.4 °F 67% 29.88 in 10.0 mi SE 17.3 mph 24.2 mph N/A   Clear
7:15 PM 76.6 °F - 66.2 °F 70% 29.88 in 10.0 mi SE 15.0 mph 19.6 mph N/A   Clear
7:35 PM 76.1 °F - 66.0 °F 71% 29.88 in 10.0 mi SE 17.3 mph - N/A   Clear
7:55 PM 75.4 °F - 65.5 °F 71% 29.88 in 10.0 mi SE 16.1 mph 21.9 mph N/A   Clear
8:15 PM 74.8 °F - 65.3 °F 72% 29.87 in 10.0 mi SE 17.3 mph 23.0 mph N/A   Clear
8:35 PM 74.1 °F - 65.3 °F 74% 29.86 in 10.0 mi SE 16.1 mph 21.9 mph N/A   Clear
8:55 PM 73.4 °F - 65.3 °F 76% 29.86 in 10.0 mi SE 15.0 mph 20.7 mph N/A   Clear
9:15 PM 72.7 °F - 65.3 °F 78% 29.86 in 10.0 mi SE 13.8 mph - N/A   Clear
9:35 PM 72.5 °F - 65.3 °F 78% 29.86 in 10.0 mi SE 12.7 mph 17.3 mph N/A   Clear
9:55 PM 71.8 °F - 65.3 °F 80% 29.88 in 10.0 mi SSE 6.9 mph - N/A   Clear
10:15 PM 71.4 °F - 65.5 °F 81% 29.88 in 10.0 mi SSE 8.1 mph - N/A   Clear
10:35 PM 70.7 °F - 65.5 °F 83% 29.89 in 10.0 mi SE 6.9 mph - N/A   Clear
10:55 PM 71.2 °F - 65.7 °F 82% 29.88 in 10.0 mi SE 9.2 mph - N/A   Clear
11:15 PM 71.2 °F - 65.8 °F 83% 29.88 in 10.0 mi SSE 10.4 mph - N/A   Clear
11:35 PM 71.6 °F - 66.0 °F 82% 29.87 in 10.0 mi SE 9.2 mph - N/A   Clear
11:55 PM 71.2 °F - 66.2 °F 84% 29.86 in 10.0 mi SE 6.9 mph - N/A   Clear